^^
Saratoga-Weather Station Historical Data
Daily Summary for August 15, 2021 Units:  Metric    English   Both
Daily Weekly Monthly Yearly Custom
  High: Low: Average:
Temperature: 30.2 °C 14.6 °C 22.3 °C
Dew Point: 19.2 °C 13.5 °C 15.8 °C
Humidity: 95% 41% 69%
Wind Speed: 7.9km/h 0km/h 1.4km/h
Wind Gust: 12.9km/h - -
Wind- - SSW
Pressure: 1017.3 hPa 1009.8 hPa -
Precipitation: 0.0 mm    
Historical Graphs
 
 
Tabular Data for August 15, 2021
Time Temperature Dew Point Pressure Wind Wind Speed Wind Gust Humidity Rainfall Rate (Hourly) solar
00:03 18.5 °C 14.2 °C 1016.9 hPa West 1.4 km/h 1.6 km/h 76% 0.0 mm 0 W/m2
00:08 18.3 °C 14 °C 1016.9 hPa Calm     76% 0.0 mm 0 W/m2
00:13 18.2 °C 14.1 °C 1016.9 hPa Calm     77% 0.0 mm 0 W/m2
00:18 18.1 °C 14 °C 1016.9 hPa Calm     77% 0.0 mm 0 W/m2
00:23 18 °C 13.9 °C 1016.9 hPa Calm     77% 0.0 mm 0 W/m2
00:28 17.9 °C 14 °C 1016.9 hPa Calm     78% 0.0 mm 0 W/m2
00:33 17.9 °C 14 °C 1016.9 hPa Calm     78% 0.0 mm 0 W/m2
00:38 17.8 °C 13.9 °C 1016.9 hPa Calm     78% 0.0 mm 0 W/m2
00:43 17.8 °C 14.1 °C 1016.9 hPa Calm     79% 0.0 mm 0 W/m2
00:48 17.7 °C 14 °C 1016.9 hPa Calm     79% 0.0 mm 0 W/m2
00:53 17.6 °C 14.1 °C 1017.3 hPa Calm     80% 0.0 mm 0 W/m2
00:58 17.6 °C 14.1 °C 1016.9 hPa Calm     80% 0.0 mm 0 W/m2
01:03 17.4 °C 14.1 °C 1016.9 hPa Calm     81% 0.0 mm 0 W/m2
01:08 17.3 °C 14 °C 1016.9 hPa Calm     81% 0.0 mm 0 W/m2
01:13 17.2 °C 13.9 °C 1016.9 hPa Calm     81% 0.0 mm 0 W/m2
01:18 17.2 °C 14.1 °C 1016.9 hPa Calm     82% 0.0 mm 0 W/m2
01:23 17.1 °C 14 °C 1016.9 hPa Calm     82% 0.0 mm 0 W/m2
01:28 17 °C 14.1 °C 1016.9 hPa Calm     83% 0.0 mm 0 W/m2
01:33 16.9 °C 14 °C 1016.9 hPa Calm     83% 0.0 mm 0 W/m2
01:38 16.8 °C 14.1 °C 1016.9 hPa Calm     84% 0.0 mm 0 W/m2
01:43 16.8 °C 14.1 °C 1016.9 hPa Calm     84% 0.0 mm 0 W/m2
01:48 16.7 °C 14 °C 1016.9 hPa Calm     84% 0.0 mm 0 W/m2
01:53 16.6 °C 14.1 °C 1016.9 hPa Calm     85% 0.0 mm 0 W/m2
01:58 16.6 °C 14.1 °C 1016.9 hPa Calm     85% 0.0 mm 0 W/m2
02:03 16.5 °C 14.1 °C 1016.6 hPa Calm     86% 0.0 mm 0 W/m2
02:08 16.4 °C 14.1 °C 1016.6 hPa Calm     86% 0.0 mm 0 W/m2
02:13 16.4 °C 14.1 °C 1016.6 hPa Calm     86% 0.0 mm 0 W/m2
02:18 16.3 °C 14 °C 1016.6 hPa Calm     86% 0.0 mm 0 W/m2
02:23 16.3 °C 14.1 °C 1016.6 hPa Calm     87% 0.0 mm 0 W/m2
02:28 16.3 °C 14.1 °C 1016.6 hPa Calm     87% 0.0 mm 0 W/m2
02:33 16.3 °C 14.1 °C 1016.6 hPa Calm     87% 0.0 mm 0 W/m2
02:38 16.2 °C 14 °C 1016.6 hPa Calm     87% 0.0 mm 0 W/m2
02:43 16.2 °C 14 °C 1016.6 hPa Calm     87% 0.0 mm 0 W/m2
02:48 16.1 °C 14.1 °C 1016.3 hPa Calm     88% 0.0 mm 0 W/m2
02:53 16.1 °C 14.1 °C 1016.3 hPa Calm     88% 0.0 mm 0 W/m2
02:58 16.1 °C 14.1 °C 1016.3 hPa Calm     88% 0.0 mm 0 W/m2
03:03 16 °C 14 °C 1016.3 hPa Calm     88% 0.0 mm 0 W/m2
03:08 15.9 °C 14.1 °C 1016.3 hPa Calm     89% 0.0 mm 0 W/m2
03:13 15.9 °C 14.1 °C 1016.3 hPa Calm     89% 0.0 mm 0 W/m2
03:18 15.9 °C 14.1 °C 1016.3 hPa Calm     89% 0.0 mm 0 W/m2
03:23 15.9 °C 14.3 °C 1016.3 hPa Calm     90% 0.0 mm 0 W/m2
03:28 15.9 °C 14.3 °C 1016.3 hPa Calm     90% 0.0 mm 0 W/m2
03:33 16 °C 14.5 °C 1016.3 hPa Calm   3.2 km/h 91% 0.0 mm 0 W/m2
03:38 16.1 °C 14.5 °C 1016.3 hPa Calm   1.6 km/h 90% 0.0 mm 0 W/m2
03:43 16.1 °C 14.5 °C 1016.3 hPa Calm   3.2 km/h 90% 0.0 mm 0 W/m2
03:48 16.1 °C 14.5 °C 1016.3 hPa Calm     90% 0.0 mm 0 W/m2
03:53 16.1 °C 14.5 °C 1016.3 hPa Calm     90% 0.0 mm 0 W/m2
03:58 16.1 °C 14.5 °C 1016.3 hPa Calm     90% 0.0 mm 0 W/m2
04:03 16.1 °C 14.5 °C 1016.3 hPa Calm     90% 0.0 mm 0 W/m2
04:08 16 °C 14.4 °C 1016.3 hPa Calm     90% 0.0 mm 0 W/m2
04:13 15.9 °C 14.3 °C 1016.3 hPa Calm     90% 0.0 mm 0 W/m2
04:18 15.9 °C 14.3 °C 1016.3 hPa Calm     90% 0.0 mm 0 W/m2
04:23 15.9 °C 14.3 °C 1016.3 hPa Calm     90% 0.0 mm 0 W/m2
04:28 15.8 °C 14.2 °C 1015.9 hPa Calm     90% 0.0 mm 0 W/m2
04:33 15.8 °C 14.2 °C 1015.9 hPa Calm     90% 0.0 mm 0 W/m2
04:38 15.7 °C 14.1 °C 1015.9 hPa Calm     90% 0.0 mm 0 W/m2
04:43 15.7 °C 14.1 °C 1015.9 hPa Calm     90% 0.0 mm 0 W/m2
04:48 15.6 °C 14.1 °C 1015.9 hPa Calm     91% 0.0 mm 0 W/m2
04:53 15.6 °C 14.1 °C 1015.9 hPa Calm     91% 0.0 mm 0 W/m2
04:58 15.6 °C 14.1 °C 1015.9 hPa Calm     91% 0.0 mm 0 W/m2
05:03 15.6 °C 14.1 °C 1015.9 hPa Calm     91% 0.0 mm 0 W/m2
05:08 15.5 °C 14 °C 1015.9 hPa Calm     91% 0.0 mm 0 W/m2
05:13 15.5 °C 14 °C 1015.9 hPa Calm     91% 0.0 mm 0 W/m2
05:18 15.4 °C 13.9 °C 1015.9 hPa Calm     91% 0.0 mm 0 W/m2
05:23 15.4 °C 13.9 °C 1015.6 hPa Calm     91% 0.0 mm 0 W/m2
05:28 15.3 °C 13.8 °C 1015.6 hPa Calm     91% 0.0 mm 0 W/m2
05:33 15.3 °C 13.8 °C 1015.6 hPa Calm     91% 0.0 mm 0 W/m2
05:38 15.2 °C 13.7 °C 1015.6 hPa Calm     91% 0.0 mm 0 W/m2
05:44 15.1 °C 13.8 °C 1015.6 hPa Calm     92% 0.0 mm 0 W/m2
05:49 15.1 °C 13.8 °C 1015.6 hPa Calm     92% 0.0 mm 0 W/m2
05:54 15 °C 13.7 °C 1015.6 hPa Calm     92% 0.0 mm 0 W/m2
05:59 14.9 °C 13.6 °C 1015.6 hPa Calm     92% 0.0 mm 0 W/m2
06:04 14.9 °C 13.6 °C 1015.2 hPa Calm     92% 0.0 mm 0 W/m2
06:09 14.8 °C 13.5 °C 1015.2 hPa Calm     92% 0.0 mm 0 W/m2
06:14 14.8 °C 13.7 °C 1015.2 hPa Calm     93% 0.0 mm 0 W/m2
06:19 14.8 °C 13.7 °C 1015.2 hPa Calm     93% 0.0 mm 0 W/m2
06:24 14.7 °C 13.6 °C 1015.2 hPa Calm     93% 0.0 mm 0 W/m2
06:29 14.7 °C 13.6 °C 1015.2 hPa Calm     93% 0.0 mm 5 W/m2
06:34 14.6 °C 13.5 °C 1015.2 hPa Calm     93% 0.0 mm 7 W/m2
06:39 14.6 °C 13.5 °C 1015.2 hPa Calm     93% 0.0 mm 9 W/m2
06:44 14.6 °C 13.5 °C 1015.2 hPa Calm     93% 0.0 mm 11 W/m2
06:49 14.6 °C 13.6 °C 1015.2 hPa Calm     94% 0.0 mm 12 W/m2
06:54 14.6 °C 13.6 °C 1015.2 hPa Calm     94% 0.0 mm 14 W/m2
06:59 14.6 °C 13.6 °C 1015.2 hPa Calm     94% 0.0 mm 16 W/m2
07:04 14.6 °C 13.6 °C 1015.2 hPa Calm     94% 0.0 mm 18 W/m2
07:09 14.6 °C 13.6 °C 1015.2 hPa Calm     94% 0.0 mm 19 W/m2
07:14 14.7 °C 13.7 °C 1015.2 hPa Calm     94% 0.0 mm 21 W/m2
07:19 14.7 °C 13.7 °C 1015.2 hPa Calm     94% 0.0 mm 23 W/m2
07:24 14.8 °C 13.8 °C 1015.2 hPa Calm     94% 0.0 mm 25 W/m2
07:29 14.9 °C 13.9 °C 1015.2 hPa Calm     94% 0.0 mm 26 W/m2
07:34 15 °C 14 °C 1015.2 hPa Calm     94% 0.0 mm 28 W/m2
07:39 15.1 °C 14.1 °C 1015.2 hPa Calm     94% 0.0 mm 30 W/m2
07:44 15.2 °C 14.2 °C 1015.2 hPa Calm     94% 0.0 mm 32 W/m2
07:49 15.3 °C 14.3 °C 1015.2 hPa Calm     94% 0.0 mm 33 W/m2
07:54 15.5 °C 14.5 °C 1015.2 hPa Calm     94% 0.0 mm 33 W/m2
07:59 15.7 °C 14.9 °C 1015.2 hPa Calm     95% 0.0 mm 35 W/m2
08:04 16 °C 15.2 °C 1015.2 hPa Calm     95% 0.0 mm 37 W/m2
08:09 16.3 °C 15.3 °C 1015.2 hPa Calm     94% 0.0 mm 39 W/m2
08:14 16.7 °C 15.6 °C 1015.2 hPa Calm     93% 0.0 mm 40 W/m2
08:19 17.2 °C 15.9 °C 1015.2 hPa Calm     92% 0.0 mm 42 W/m2
08:24 17.7 °C 15.9 °C 1015.2 hPa North 1.6 km/h 1.6 km/h 89% 0.0 mm 46 W/m2
08:29 18.2 °C 15.6 °C 1015.2 hPa East 1.4 km/h 3.2 km/h 85% 0.0 mm 47 W/m2
08:34 18.7 °C 15.8 °C 1015.2 hPa East 3.2 km/h 3.2 km/h 83% 0.0 mm 62 W/m2
08:39 19.1 °C 16 °C 1015.2 hPa Calm   3.2 km/h 82% 0.0 mm 163 W/m2
08:44 19.2 °C 15.9 °C 1015.2 hPa ESE 1.4 km/h 3.2 km/h 81% 0.0 mm 248 W/m2
08:49 19.5 °C 15.6 °C 1015.2 hPa Calm   1.6 km/h 78% 0.0 mm 274 W/m2
08:54 19.8 °C 15.9 °C 1015.2 hPa Calm     78% 0.0 mm 297 W/m2
08:59 19.9 °C 15.7 °C 1014.9 hPa Calm   3.2 km/h 77% 0.0 mm 322 W/m2
09:04 20.1 °C 15.5 °C 1014.9 hPa ENE 1.4 km/h 1.6 km/h 75% 0.0 mm 327 W/m2
09:09 20.2 °C 15.4 °C 1014.9 hPa ESE 4.7 km/h 4.8 km/h 74% 0.0 mm 334 W/m2
09:14 20.3 °C 15.9 °C 1014.9 hPa ESE 1.4 km/h 1.6 km/h 76% 0.0 mm 352 W/m2
09:19 20.3 °C 15.7 °C 1014.9 hPa NNW 3.2 km/h 3.2 km/h 75% 0.0 mm 385 W/m2
09:24 20.2 °C 15.2 °C 1014.9 hPa Calm   4.8 km/h 73% 0.0 mm 366 W/m2
09:29 20.2 °C 15.4 °C 1014.9 hPa Calm     74% 0.0 mm 376 W/m2
09:34 20.3 °C 15.5 °C 1014.9 hPa East 3.2 km/h 3.2 km/h 74% 0.0 mm 128 W/m2
09:39 20.4 °C 15.6 °C 1014.9 hPa Calm   1.6 km/h 74% 0.0 mm 121 W/m2
09:44 20.7 °C 15.7 °C 1014.9 hPa NE 3.2 km/h 3.2 km/h 73% 0.0 mm 362 W/m2
09:49 20.9 °C 15.9 °C 1014.9 hPa ENE 3.2 km/h 3.2 km/h 73% 0.0 mm 425 W/m2
09:55 20.9 °C 15.7 °C 1014.9 hPa Calm   1.6 km/h 72% 0.0 mm 397 W/m2
10:00 21.2 °C 15.9 °C 1014.9 hPa NE 3.2 km/h 3.2 km/h 72% 0.0 mm 459 W/m2
10:05 21.3 °C 16 °C 1014.9 hPa Calm   3.2 km/h 72% 0.0 mm 494 W/m2
10:10 21.6 °C 16.1 °C 1014.9 hPa Calm   1.6 km/h 71% 0.0 mm 499 W/m2
10:15 21.9 °C 16.2 °C 1014.9 hPa Calm   3.2 km/h 70% 0.0 mm 510 W/m2
10:20 22 °C 16 °C 1014.9 hPa ENE 1.4 km/h 4.8 km/h 69% 0.0 mm 520 W/m2
10:25 22.3 °C 16.3 °C 1014.9 hPa ENE 3.2 km/h 4.8 km/h 69% 0.0 mm 504 W/m2
10:30 22.4 °C 16.2 °C 1014.6 hPa Calm   4.8 km/h 68% 0.0 mm 538 W/m2
10:35 22.6 °C 16.6 °C 1014.9 hPa NE 3.2 km/h 3.2 km/h 69% 0.0 mm 534 W/m2
10:40 22.8 °C 16.6 °C 1014.6 hPa East 1.4 km/h 1.6 km/h 68% 0.0 mm 591 W/m2
10:45 23.1 °C 16.9 °C 1014.6 hPa Calm   6.4 km/h 68% 0.0 mm 610 W/m2
10:50 23.3 °C 16.8 °C 1014.6 hPa ESE 1.4 km/h 4.8 km/h 67% 0.0 mm 578 W/m2
10:55 23.6 °C 16.6 °C 1014.6 hPa SE 6.4 km/h 6.4 km/h 65% 0.0 mm 568 W/m2
11:00 23.7 °C 16.7 °C 1014.6 hPa ENE 1.4 km/h 4.8 km/h 65% 0.0 mm 603 W/m2
11:05 23.8 °C 17.1 °C 1014.6 hPa NE 4.7 km/h 8 km/h 66% 0.0 mm 631 W/m2
11:10 23.9 °C 16.9 °C 1014.6 hPa East 3.2 km/h 6.4 km/h 65% 0.0 mm 647 W/m2
11:15 24.1 °C 16.9 °C 1014.6 hPa East 1.4 km/h 8 km/h 64% 0.0 mm 638 W/m2
11:20 24.2 °C 17.2 °C 1014.6 hPa East 4.7 km/h 6.4 km/h 65% 0.0 mm 673 W/m2
11:25 24.3 °C 17.1 °C 1014.6 hPa Calm   4.8 km/h 64% 0.0 mm 686 W/m2
11:30 24.4 °C 17.1 °C 1014.6 hPa Calm   4.8 km/h 64% 0.0 mm 689 W/m2
11:35 24.7 °C 17.4 °C 1014.6 hPa NNW 3.2 km/h 4.8 km/h 64% 0.0 mm 591 W/m2
11:40 24.9 °C 17.1 °C 1014.2 hPa ENE 1.4 km/h 4.8 km/h 62% 0.0 mm 735 W/m2
11:45 25.1 °C 17.6 °C 1014.2 hPa Calm   1.6 km/h 63% 0.0 mm 594 W/m2
11:50 25.4 °C 18.3 °C 1014.2 hPa ESE 4.7 km/h 4.8 km/h 65% 0.0 mm 761 W/m2
11:55 25.7 °C 17.4 °C 1014.2 hPa East 1.4 km/h 4.8 km/h 60% 0.0 mm 731 W/m2
12:00 25.8 °C 17.4 °C 1014.2 hPa ENE 6.4 km/h 6.4 km/h 60% 0.0 mm 768 W/m2
12:05 25.8 °C 17.4 °C 1014.2 hPa Calm   6.4 km/h 60% 0.0 mm 796 W/m2
12:10 26.2 °C 17.8 °C 1014.2 hPa ESE 3.2 km/h 3.2 km/h 60% 0.0 mm 754 W/m2
12:15 26.4 °C 17.7 °C 1014.2 hPa East 1.4 km/h 6.4 km/h 59% 0.0 mm 584 W/m2
12:20 26.3 °C 17.4 °C 1014.2 hPa NNE 1.4 km/h 3.2 km/h 58% 0.0 mm 640 W/m2
12:25 26.3 °C 17.9 °C 1014.2 hPa Calm   1.6 km/h 60% 0.0 mm 707 W/m2
12:30 26.5 °C 17.3 °C 1013.9 hPa Calm   6.4 km/h 57% 0.0 mm 740 W/m2
12:35 26.6 °C 17.4 °C 1013.9 hPa Calm   4.8 km/h 57% 0.0 mm 714 W/m2
12:40 26.8 °C 17.3 °C 1013.9 hPa South 1.4 km/h 3.2 km/h 56% 0.0 mm 745 W/m2
12:45 26.9 °C 16.5 °C 1013.9 hPa ESE 1.4 km/h 4.8 km/h 53% 0.0 mm 773 W/m2
12:50 27.3 °C 17.8 °C 1013.5 hPa ESE 1.4 km/h 3.2 km/h 56% 0.0 mm 733 W/m2
12:55 27.7 °C 16.9 °C 1013.5 hPa SE 1.4 km/h 6.4 km/h 52% 0.0 mm 707 W/m2
13:00 27.7 °C 16.9 °C 1013.5 hPa Calm   1.6 km/h 52% 0.0 mm 719 W/m2
13:05 27.6 °C 16.6 °C 1013.5 hPa East 1.4 km/h 4.8 km/h 51% 0.0 mm 661 W/m2
13:10 27.5 °C 16.1 °C 1013.5 hPa WNW 3.2 km/h 4.8 km/h 50% 0.0 mm 700 W/m2
13:15 27.2 °C 16.8 °C 1013.2 hPa WSW 3.2 km/h 4.8 km/h 53% 0.0 mm 802 W/m2
13:20 27.1 °C 16.7 °C 1013.2 hPa SE 1.4 km/h 1.6 km/h 53% 0.0 mm 761 W/m2
13:25 27.3 °C 16.6 °C 1013.2 hPa East 4.7 km/h 8 km/h 52% 0.0 mm 721 W/m2
13:30 27.3 °C 16.3 °C 1013.2 hPa East 3.2 km/h 4.8 km/h 51% 0.0 mm 701 W/m2
13:35 27.4 °C 16.1 °C 1013.2 hPa NE 1.4 km/h 3.2 km/h 50% 0.0 mm 652 W/m2
13:40 27.6 °C 15.9 °C 1012.9 hPa NNW 4.7 km/h 6.4 km/h 49% 0.0 mm 705 W/m2
13:45 27.5 °C 15.8 °C 1012.9 hPa East 1.4 km/h 1.6 km/h 49% 0.0 mm 747 W/m2
13:50 27.8 °C 17 °C 1012.9 hPa East 3.2 km/h 4.8 km/h 52% 0.0 mm 791 W/m2
13:55 28 °C 16.3 °C 1012.9 hPa West 3.2 km/h 4.8 km/h 49% 0.0 mm 812 W/m2
14:01 28.1 °C 16.7 °C 1012.9 hPa Calm   3.2 km/h 50% 0.0 mm 795 W/m2
14:06 28.3 °C 16.2 °C 1012.9 hPa SSW 1.4 km/h 3.2 km/h 48% 0.0 mm 838 W/m2
14:11 28.6 °C 16.8 °C 1012.9 hPa Calm   4.8 km/h 49% 0.0 mm 758 W/m2
14:16 28.6 °C 16.8 °C 1012.9 hPa WSW 3.2 km/h 8 km/h 49% 0.0 mm 752 W/m2
14:21 28.4 °C 16 °C 1012.5 hPa WNW 3.2 km/h 8 km/h 47% 0.0 mm 772 W/m2
14:26 28.3 °C 15.6 °C 1012.5 hPa WSW 1.4 km/h 6.4 km/h 46% 0.0 mm 770 W/m2
14:31 28.3 °C 15.6 °C 1012.5 hPa Calm   8 km/h 46% 0.0 mm 731 W/m2
14:36 28.4 °C 16.7 °C 1012.5 hPa WNW 1.4 km/h 6.4 km/h 49% 0.0 mm 810 W/m2
14:41 28.3 °C 15.9 °C 1012.5 hPa ENE 1.4 km/h 6.4 km/h 47% 0.0 mm 745 W/m2
14:46 28.4 °C 16.3 °C 1012.5 hPa NW 3.2 km/h 11.3 km/h 48% 0.0 mm 700 W/m2
14:51 28.6 °C 16.5 °C 1012.5 hPa East 1.4 km/h 3.2 km/h 48% 0.0 mm 652 W/m2
14:56 28.8 °C 17.7 °C 1012.2 hPa East 1.4 km/h 11.3 km/h 51% 0.0 mm 854 W/m2
15:01 29 °C 15.9 °C 1012.2 hPa NNW 1.4 km/h 9.7 km/h 45% 0.0 mm 612 W/m2
15:06 28.8 °C 15.3 °C 1012.2 hPa West 1.4 km/h 6.4 km/h 44% 0.0 mm 812 W/m2
15:11 28.8 °C 15.3 °C 1011.9 hPa Calm   3.2 km/h 44% 0.0 mm 875 W/m2
15:16 29 °C 15.9 °C 1011.9 hPa Calm   4.8 km/h 45% 0.0 mm 759 W/m2
15:21 29.1 °C 16 °C 1011.9 hPa West 6.4 km/h 6.4 km/h 45% 0.0 mm 728 W/m2
15:26 29.1 °C 16 °C 1011.9 hPa WSW 4.7 km/h 9.7 km/h 45% 0.0 mm 824 W/m2
15:31 29.1 °C 16 °C 1011.9 hPa WNW 3.2 km/h 6.4 km/h 45% 0.0 mm 647 W/m2
15:36 28.9 °C 15.4 °C 1011.5 hPa NW 4.7 km/h 8 km/h 44% 0.0 mm 680 W/m2
15:41 28.9 °C 15.8 °C 1011.5 hPa West 1.4 km/h 11.3 km/h 45% 0.0 mm 515 W/m2
15:46 28.9 °C 16.5 °C 1011.5 hPa WSW 3.2 km/h 3.2 km/h 47% 0.0 mm 663 W/m2
15:51 29.1 °C 17 °C 1011.5 hPa WNW 1.4 km/h 11.3 km/h 48% 0.0 mm 663 W/m2
15:56 29.3 °C 15.8 °C 1011.2 hPa NW 6.4 km/h 9.7 km/h 44% 0.0 mm 744 W/m2
16:01 29.3 °C 15.1 °C 1011.2 hPa NW 3.2 km/h 6.4 km/h 42% 0.0 mm 547 W/m2
16:06 29.3 °C 15.4 °C 1011.2 hPa SW 3.2 km/h 8 km/h 43% 0.0 mm 619 W/m2
16:11 29.3 °C 15.1 °C 1010.8 hPa West 1.4 km/h 6.4 km/h 42% 0.0 mm 749 W/m2
16:16 29.4 °C 16.2 °C 1010.8 hPa West 3.2 km/h 11.3 km/h 45% 0.0 mm 749 W/m2
16:21 29.5 °C 16.3 °C 1010.8 hPa West 3.2 km/h 6.4 km/h 45% 0.0 mm 705 W/m2
16:26 29.7 °C 15.8 °C 1010.8 hPa WNW 3.2 km/h 6.4 km/h 43% 0.0 mm 707 W/m2
16:31 29.7 °C 15.4 °C 1010.8 hPa North 7.9 km/h 9.7 km/h 42% 0.0 mm 705 W/m2
16:36 29.9 °C 15.2 °C 1010.8 hPa WNW 6.4 km/h 11.3 km/h 41% 0.0 mm 680 W/m2
16:41 29.7 °C 15.4 °C 1010.8 hPa West 4.7 km/h 9.7 km/h 42% 0.0 mm 664 W/m2
16:46 29.7 °C 15.4 °C 1010.8 hPa West 4.7 km/h 6.4 km/h 42% 0.0 mm 584 W/m2
16:51 29.7 °C 15.4 °C 1010.8 hPa West 3.2 km/h 6.4 km/h 42% 0.0 mm 633 W/m2
16:56 29.7 °C 15.8 °C 1010.8 hPa NNW 6.4 km/h 8 km/h 43% 0.0 mm 608 W/m2
17:01 29.6 °C 15.3 °C 1010.8 hPa WSW 4.7 km/h 11.3 km/h 42% 0.0 mm 598 W/m2
17:06 29.7 °C 15.8 °C 1010.8 hPa SSW 3.2 km/h 3.2 km/h 43% 0.0 mm 582 W/m2
17:11 29.9 °C 15.6 °C 1010.8 hPa West 3.2 km/h 4.8 km/h 42% 0.0 mm 570 W/m2
17:16 30.1 °C 15.4 °C 1010.8 hPa WSW 1.4 km/h 4.8 km/h 41% 0.0 mm 566 W/m2
17:21 30.2 °C 16.6 °C 1010.8 hPa WNW 1.4 km/h 4.8 km/h 44% 0.0 mm 550 W/m2
17:26 30.2 °C 15.5 °C 1010.8 hPa WSW 4.7 km/h 9.7 km/h 41% 0.0 mm 533 W/m2
17:31 30.2 °C 16.2 °C 1010.8 hPa West 4.7 km/h 6.4 km/h 43% 0.0 mm 462 W/m2
17:36 30.1 °C 16.1 °C 1010.8 hPa WSW 3.2 km/h 4.8 km/h 43% 0.0 mm 494 W/m2
17:41 30.1 °C 15.8 °C 1010.8 hPa WSW 4.7 km/h 6.4 km/h 42% 0.0 mm 482 W/m2
17:46 30.1 °C 15.8 °C 1010.8 hPa West 3.2 km/h 9.7 km/h 42% 0.0 mm 464 W/m2
17:51 30.1 °C 15.8 °C 1010.8 hPa WSW 3.2 km/h 12.9 km/h 42% 0.0 mm 455 W/m2
17:56 30 °C 15.7 °C 1010.8 hPa WNW 6.4 km/h 6.4 km/h 42% 0.0 mm 443 W/m2
18:01 29.8 °C 15.9 °C 1010.8 hPa SW 4.7 km/h 12.9 km/h 43% 0.0 mm 427 W/m2
18:06 29.7 °C 16.5 °C 1010.5 hPa WSW 4.7 km/h 9.7 km/h 45% 0.0 mm 406 W/m2
18:11 29.6 °C 16.1 °C 1010.5 hPa WSW 4.7 km/h 11.3 km/h 44% 0.0 mm 392 W/m2
18:16 29.5 °C 16.3 °C 1010.5 hPa West 4.7 km/h 6.4 km/h 45% 0.0 mm 387 W/m2
18:21 29.6 °C 17.1 °C 1010.5 hPa West 4.7 km/h 11.3 km/h 47% 0.0 mm 367 W/m2
18:26 29.5 °C 16.7 °C 1010.5 hPa West 1.4 km/h 6.4 km/h 46% 0.0 mm 357 W/m2
18:31 29.4 °C 16.6 °C 1010.2 hPa West 3.2 km/h 4.8 km/h 46% 0.0 mm 332 W/m2
18:36 29.4 °C 16.9 °C 1010.2 hPa WNW 4.7 km/h 9.7 km/h 47% 0.0 mm 325 W/m2
18:41 29.3 °C 16.8 °C 1010.2 hPa West 4.7 km/h 6.4 km/h 47% 0.0 mm 308 W/m2
18:46 29.2 °C 17.1 °C 1010.2 hPa WSW 4.7 km/h 8 km/h 48% 0.0 mm 285 W/m2
18:51 29 °C 17.2 °C 1010.2 hPa WSW 3.2 km/h 6.4 km/h 49% 0.0 mm 248 W/m2
18:56 28.8 °C 17.3 °C 1010.2 hPa WSW 3.2 km/h 8 km/h 50% 0.0 mm 229 W/m2
19:02 28.6 °C 17.2 °C 1010.2 hPa WSW 4.7 km/h 4.8 km/h 50% 0.0 mm 183 W/m2
19:07 28.4 °C 17 °C 1010.2 hPa WSW 4.7 km/h 6.4 km/h 50% 0.0 mm 220 W/m2
19:12 28.3 °C 17.2 °C 1010.2 hPa West 4.7 km/h 6.4 km/h 51% 0.0 mm 206 W/m2
19:17 28.3 °C 16.9 °C 1010.2 hPa West 1.4 km/h 3.2 km/h 50% 0.0 mm 183 W/m2
19:22 28.5 °C 17.7 °C 1010.2 hPa WSW 1.4 km/h 6.4 km/h 52% 0.0 mm 151 W/m2
19:27 28.6 °C 18.4 °C 1010.2 hPa Calm   1.6 km/h 54% 0.0 mm 137 W/m2
19:32 28.5 °C 18.6 °C 1010.2 hPa Calm     55% 0.0 mm 120 W/m2
19:37 28.6 °C 19.2 °C 1009.8 hPa Calm     57% 0.0 mm 109 W/m2
19:42 28.6 °C 19.2 °C 1010.2 hPa WSW 1.4 km/h 3.2 km/h 57% 0.0 mm 100 W/m2
19:47 28.3 °C 19 °C 1009.8 hPa Calm   1.6 km/h 57% 0.0 mm 93 W/m2
19:52 28.3 °C 19 °C 1009.8 hPa WSW 1.4 km/h 3.2 km/h 57% 0.0 mm 90 W/m2
19:57 28.2 °C 18.6 °C 1009.8 hPa WSW 1.4 km/h 3.2 km/h 56% 0.0 mm 81 W/m2
20:02 28 °C 18.1 °C 1009.8 hPa SW 1.4 km/h 1.6 km/h 55% 0.0 mm 65 W/m2
20:07 27.8 °C 18.2 °C 1009.8 hPa SW 1.4 km/h 1.6 km/h 56% 0.0 mm 54 W/m2
20:12 27.4 °C 18.1 °C 1009.8 hPa Calm   1.6 km/h 57% 0.0 mm 33 W/m2
20:17 26.9 °C 17.9 °C 1009.8 hPa SW 1.4 km/h 3.2 km/h 58% 0.0 mm 26 W/m2
20:22 26.4 °C 17.7 °C 1010.2 hPa SW 1.4 km/h 3.2 km/h 59% 0.0 mm 25 W/m2
20:27 25.9 °C 17.8 °C 1010.2 hPa SW 1.4 km/h 3.2 km/h 61% 0.0 mm 21 W/m2
20:32 25.4 °C 17.6 °C 1009.8 hPa SW 1.4 km/h 3.2 km/h 62% 0.0 mm 16 W/m2
20:37 25 °C 17.5 °C 1009.8 hPa SW 1.4 km/h 3.2 km/h 63% 0.0 mm 14 W/m2
20:42 24.7 °C 17.4 °C 1009.8 hPa SW 1.4 km/h 3.2 km/h 64% 0.0 mm 9 W/m2
20:47 24.4 °C 17.4 °C 1010.2 hPa Calm     65% 0.0 mm 7 W/m2
20:52 24.3 °C 17.5 °C 1010.2 hPa Calm   3.2 km/h 66% 0.0 mm 0 W/m2
20:57 24 °C 17.3 °C 1010.2 hPa Calm     66% 0.0 mm 0 W/m2
21:02 23.8 °C 17.3 °C 1010.2 hPa Calm     67% 0.0 mm 0 W/m2
21:07 23.6 °C 17.3 °C 1010.2 hPa Calm     68% 0.0 mm 0 W/m2
21:12 23.4 °C 17.2 °C 1010.2 hPa Calm     68% 0.0 mm 0 W/m2
21:17 23.2 °C 17.2 °C 1010.2 hPa Calm     69% 0.0 mm 0 W/m2
21:22 23.1 °C 17.3 °C 1010.2 hPa Calm     70% 0.0 mm 0 W/m2
21:27 22.9 °C 17.4 °C 1010.2 hPa SW 3.2 km/h 3.2 km/h 71% 0.0 mm 0 W/m2
21:32 22.7 °C 16.9 °C 1010.2 hPa Calm   1.6 km/h 70% 0.0 mm 0 W/m2
21:37 22.7 °C 17.4 °C 1010.2 hPa Calm   1.6 km/h 72% 0.0 mm 0 W/m2
21:42 22.6 °C 17.1 °C 1010.2 hPa Calm     71% 0.0 mm 0 W/m2
21:47 22.5 °C 17 °C 1010.2 hPa Calm   1.6 km/h 71% 0.0 mm 0 W/m2
21:52 22.4 °C 17.1 °C 1010.2 hPa WNW 1.4 km/h 3.2 km/h 72% 0.0 mm 0 W/m2
21:57 22.3 °C 17 °C 1010.2 hPa Calm   1.6 km/h 72% 0.0 mm 0 W/m2
22:02 22.3 °C 16.8 °C 1010.2 hPa Calm   1.6 km/h 71% 0.0 mm 0 W/m2
22:07 22.2 °C 16.9 °C 1010.2 hPa Calm     72% 0.0 mm 0 W/m2
22:12 22.2 °C 16.9 °C 1010.2 hPa Calm     72% 0.0 mm 0 W/m2
22:17 22.1 °C 16.8 °C 1010.2 hPa Calm     72% 0.0 mm 0 W/m2
22:22 22.1 °C 17 °C 1010.2 hPa Calm   1.6 km/h 73% 0.0 mm 0 W/m2
22:27 22.1 °C 17 °C 1010.2 hPa Calm     73% 0.0 mm 0 W/m2
22:32 22.1 °C 17.2 °C 1010.2 hPa WNW 1.4 km/h 1.6 km/h 74% 0.0 mm 0 W/m2
22:37 22.1 °C 16.8 °C 1010.2 hPa WSW 3.2 km/h 12.9 km/h 72% 0.0 mm 0 W/m2
22:42 22.6 °C 16.8 °C 1010.2 hPa WSW 1.4 km/h 4.8 km/h 70% 0.0 mm 0 W/m2
22:47 23.2 °C 17 °C 1010.2 hPa WNW 4.7 km/h 9.7 km/h 68% 0.0 mm 0 W/m2
22:52 23.6 °C 17.1 °C 1009.8 hPa NW 6.4 km/h 6.4 km/h 67% 0.0 mm 0 W/m2
22:57 23.8 °C 17.3 °C 1009.8 hPa West 3.2 km/h 4.8 km/h 67% 0.0 mm 0 W/m2
23:02 23.8 °C 17.3 °C 1009.8 hPa NW 1.4 km/h 6.4 km/h 67% 0.0 mm 0 W/m2
23:07 23.4 °C 17.4 °C 1009.8 hPa NW 3.2 km/h 4.8 km/h 69% 0.0 mm 0 W/m2
23:12 23 °C 17.2 °C 1009.8 hPa NNW 3.2 km/h 4.8 km/h 70% 0.0 mm 0 W/m2
23:17 22.7 °C 17.4 °C 1009.8 hPa WNW 3.2 km/h 3.2 km/h 72% 0.0 mm 0 W/m2
23:22 22.3 °C 17.2 °C 1009.8 hPa WNW 4.7 km/h 4.8 km/h 73% 0.0 mm 0 W/m2
23:27 22.1 °C 17.2 °C 1009.8 hPa WNW 1.4 km/h 3.2 km/h 74% 0.0 mm 0 W/m2
23:32 21.9 °C 17.1 °C 1009.8 hPa WNW 1.4 km/h 3.2 km/h 74% 0.0 mm 0 W/m2
23:37 21.8 °C 17.2 °C 1010.2 hPa WNW 1.4 km/h 3.2 km/h 75% 0.0 mm 0 W/m2
23:42 21.7 °C 17.3 °C 1010.2 hPa WNW 1.4 km/h 3.2 km/h 76% 0.0 mm 0 W/m2
23:47 21.6 °C 17.2 °C 1010.2 hPa WNW 1.4 km/h 3.2 km/h 76% 0.0 mm 0 W/m2
23:52 21.4 °C 17.2 °C 1010.2 hPa West 1.4 km/h 3.2 km/h 77% 0.0 mm 0 W/m2
23:57 21.3 °C 17.1 °C 1010.2 hPa West 3.2 km/h 12.9 km/h 77% 0.0 mm 0 W/m2
Juneau County Weather
Compliments of Weather Underground - 4 mb